[[{"header":{"parameterUnit":"m.s-1","parameterCategory":1,"la1":30.2991,"la2":30.254,"lo1":-89.0895,"lo2":-89.0444,"dy":0.0017,"dx":0.0017,"nx":28,"ny":28,"refTime":"2025-06-09T03:00:00:Z","depth":0,"parameterNumber":2,"parameterNumberName":"U-component_of_WINDS"},"data":[0,0,0,0,0,0,0,0,0,0,0,0,0,0,0,0,0,0,0,0,0,0,0,0,0,0,0,0,0,0,0,0,0,0,0,0,0,0,0,0,0,0,0,0,0,0,0,0,0,0,0,0,0,0,0,0,0,0,4.1375,4.1377,0,4.1545,4.1547,4.1549,4.15,4.1496,4.1493,4.1489,4.1668,4.1676,4.1684,0,0,0,0,0,0,0,0,0,0,0,0,0,4.101,4.1017,4.1375,4.1377,4.1379,4.1545,4.1547,4.155,4.15,4.1496,4.1492,4.1488,4.1665,4.1675,4.1684,0,0,0,0,0,0,0,0,0,0,0,0,0,4.1173,4.1019,4.1374,4.1374,4.1376,4.1545,4.1548,4.155,4.1501,4.1496,4.1491,4.1486,4.1662,4.1674,4.1686,4.1866,0,0,4.1723,4.1728,0,0,0,0,0,0,0,0,4.1164,4.1187,4.1372,4.1375,4.1377,4.1496,4.1484,4.1656,4.1503,4.1454,4.1489,4.1483,4.1615,4.1631,4.1674,4.1874,4.1882,4.1724,4.1731,4.1736,4.174,0,0,0,0,0,0,0,4.1153,4.1179,4.1442,4.1375,4.1378,4.1367,4.1384,4.1517,4.1562,4.1458,4.1454,4.1475,4.1615,4.1663,4.1678,4.1885,4.1723,4.1734,4.1741,4.1746,4.2241,4.2247,0,0,0,0,0,0,4.1139,4.117,4.1437,4.1447,4.1255,4.1378,4.1397,4.1463,4.1561,4.157,4.1479,4.1472,4.1645,4.1664,4.1684,4.1901,4.1736,4.1747,4.1754,4.2235,4.2242,4.2249,0,0,0,0,0,0,4.1132,4.1164,4.143,4.1308,4.1341,4.139,4.1464,4.1469,4.1516,4.1577,4.1585,4.1519,4.1642,4.1667,4.1821,4.1907,4.1753,4.1764,4.2228,4.2237,4.2246,4.2337,0,0,0,0,0,0,4.1121,4.1161,4.1229,4.131,4.1348,4.1563,4.1469,4.1476,4.1537,4.1529,4.1617,4.1626,4.1639,4.1803,4.1833,4.1921,4.1773,4.2221,4.2232,4.2243,4.2326,4.2348,4.2366,0,0,0,0,0,4.1109,4.1249,4.1233,4.1265,4.1434,4.1568,4.159,4.1601,4.1544,4.1613,4.1652,4.1623,4.1893,4.1819,4.1852,4.1945,4.2215,4.2229,4.2242,4.2318,4.2344,4.2366,0,0,0,0,0,0,4.1179,4.126,4.1243,4.1413,4.1484,4.1559,4.1647,4.1628,4.1717,4.1706,4.1718,4.1738,4.1895,4.1936,4.1852,4.2125,4.2046,4.2066,4.2092,4.2117,4.2137,4.2123,4.1783,0,0,0,0,0,4.1214,4.1315,4.1381,4.1525,4.1561,4.1598,4.1657,4.166,4.1734,4.1764,4.1814,4.1888,4.1989,4.2056,4.2152,4.2332,4.2351,4.2413,4.2432,4.2448,4.2466,4.2564,4.2592,4.2292,4.2292,4.2292,0,0,4.1288,4.1345,4.1408,4.1541,4.1595,4.1701,4.1624,4.1738,4.1817,4.1782,4.1929,4.1969,4.2052,4.2219,4.2296,4.2258,4.2553,4.2465,4.2478,4.2487,4.258,4.2608,4.2634,4.2301,4.23,4.2298,0,0,4.1476,4.1529,4.1655,4.1711,4.1795,4.1819,4.1849,4.1928,4.1952,4.21,4.2076,4.217,4.2344,4.2404,4.2458,4.267,4.2646,4.2701,4.2804,4.29,4.2923,4.2944,4.3019,4.3046,4.2718,4.2719,4.2719,0,4.1557,4.1713,4.1722,4.1839,4.1898,4.187,4.1997,4.2053,4.2164,4.2206,4.2162,4.238,4.2435,4.2615,4.2667,4.2712,4.2747,4.269,4.2919,4.294,4.296,4.3031,4.3059,4.2725,4.2724,4.2723,4.2723,0,4.1809,4.1918,4.201,4.2117,4.2187,4.2309,4.2336,4.2406,4.2403,4.2432,4.2583,4.2648,4.2756,4.28,4.2799,4.2981,4.2955,4.2915,4.2836,4.2994,4.3061,4.3089,4.2733,4.2731,4.2729,4.2728,0,0,4.2045,4.2155,4.2189,4.2237,4.2328,4.2413,4.2534,4.2639,4.2698,4.2777,4.2879,4.3027,4.2991,4.3052,4.3057,4.3141,4.3303,4.3091,4.3093,4.3127,4.3508,4.3536,4.3568,4.3289,4.3294,4.3298,4.35,0,4.224,4.2451,4.2462,4.2654,4.2755,4.2731,4.2836,4.2904,4.2934,4.3025,4.3059,4.3164,4.3108,4.3145,4.3227,4.3266,4.338,4.3252,4.3384,4.3389,4.3362,4.3603,4.3633,4.3821,4.3527,4.3531,4.3535,0,4.2495,4.258,4.2782,4.2858,4.2901,4.2995,4.3092,4.3179,4.3256,4.3272,4.334,4.3334,4.3459,4.3376,4.3549,4.3462,4.3517,4.3545,4.3552,4.3564,4.347,4.362,4.3881,4.3908,4.3576,4.3573,4.357,0,4.2646,4.2811,4.2952,4.2995,4.3087,4.3154,4.3196,4.3267,4.333,4.3416,4.3456,4.3556,4.3611,4.3689,4.371,4.3648,4.3882,4.3801,4.3899,4.3899,4.3949,4.3945,4.4221,4.3987,4.3986,4.3986,4.3985,0,4.2861,4.2986,4.3021,4.3108,4.3247,4.326,4.3397,4.3435,4.3499,4.3593,4.3579,4.3669,4.3691,4.3786,4.3803,4.3943,4.3969,4.3986,4.3988,4.3986,4.3984,4.4021,4.4008,4.3993,4.3991,4.399,4.3989,0,4.3052,4.3081,4.3234,4.3309,4.3331,4.343,4.3494,4.3579,4.3607,4.3727,4.3756,4.3802,4.3912,4.3941,4.4073,4.4085,4.425,4.4241,4.4223,4.4222,4.4318,4.4308,4.4627,4.4669,4.4408,4.4411,4.4413,0,4.3187,4.3282,4.3367,4.3429,4.3473,4.3573,4.3636,4.3653,4.372,4.3815,4.3888,4.3996,4.4083,4.426,4.4306,4.4407,4.44,4.4505,4.4415,4.441,4.44,4.4394,4.4403,4.4521,4.4524,4.4526,4.4528,0,4.3423,4.3433,4.3524,4.3621,4.3696,4.3774,4.3848,4.39,4.3927,4.4003,4.4115,4.4182,4.4317,4.4424,4.4526,4.4571,4.4555,4.4556,4.4584,4.4582,4.4567,4.4575,4.4268,4.4548,4.4546,4.4545,4.4544,4.4543,4.359,4.3672,4.3745,4.3847,4.3904,4.3974,4.4056,4.4095,4.4188,4.4297,4.4302,4.4424,4.4499,4.4634,4.4684,4.478,4.4748,4.4789,4.4799,4.4809,4.4816,4.4553,4.4799,4.4798,4.4798,4.4797,4.4797,0,4.3824,4.3869,4.3963,4.4066,4.4147,4.4124,4.4205,4.4274,4.438,4.4451,4.4537,4.4665,4.477,4.4824,4.4928,4.4994,4.4989,4.5021,4.5015,4.5026,4.4839,4.4804,4.5023,4.5023,4.5023,4.5022,4.5022,4.5022,4.3955,4.4093,4.4112,4.4279,4.4324,4.4441,4.4489,4.4554,4.461,4.4753,4.4839,4.4873,4.4938,4.5046,4.5141,4.5155,4.5193,4.5228,4.5238,4.5062,4.5039,4.5017,4.4984,4.5237,4.5237,4.5416,4.5418,4.5419]},{"header":{"parameterUnit":"m.s-1","parameterCategory":1,"la1":30.2991,"la2":30.254,"lo1":-89.0895,"lo2":-89.0444,"dy":0.0017,"dx":0.0017,"nx":28,"ny":28,"refTime":"2025-06-09T03:00:00:Z","depth":0,"parameterNumber":3,"parameterNumberName":"V-component_of_WINDS"},"data":[0,0,0,0,0,0,0,0,0,0,0,0,0,0,0,0,0,0,0,0,0,0,0,0,0,0,0,0,0,0,0,0,0,0,0,0,0,0,0,0,0,0,0,0,0,0,0,0,0,0,0,0,0,0,0,0,0,0,-0.3321,-0.3321,0,-0.3386,-0.3387,-0.3388,-0.344,-0.344,-0.3441,-0.3441,-0.3508,-0.3509,-0.351,0,0,0,0,0,0,0,0,0,0,0,0,0,-0.3239,-0.324,-0.332,-0.3321,-0.3322,-0.3386,-0.3387,-0.3388,-0.3439,-0.344,-0.3441,-0.3441,-0.3507,-0.3509,-0.3511,0,0,0,0,0,0,0,0,0,0,0,0,0,-0.3287,-0.3241,-0.332,-0.3356,-0.3359,-0.3386,-0.3387,-0.3388,-0.3439,-0.344,-0.3441,-0.3442,-0.3507,-0.3509,-0.3511,-0.3507,0,0,-0.3517,-0.3518,0,0,0,0,0,0,0,0,-0.3284,-0.3289,-0.335,-0.3353,-0.3358,-0.3405,-0.3383,-0.3428,-0.3439,-0.3409,-0.3441,-0.3442,-0.3473,-0.3478,-0.3489,-0.3511,-0.3513,-0.3517,-0.3518,-0.3519,-0.352,0,0,0,0,0,0,0,-0.328,-0.3287,-0.3346,-0.335,-0.3355,-0.3368,-0.3375,-0.3392,-0.3436,-0.3412,-0.3416,-0.3423,-0.3475,-0.3487,-0.3491,-0.3514,-0.3517,-0.3519,-0.352,-0.3521,-0.3537,-0.3536,0,0,0,0,0,0,-0.3272,-0.3284,-0.3344,-0.3348,-0.3322,-0.3369,-0.3377,-0.3389,-0.3436,-0.3444,-0.3422,-0.3425,-0.3483,-0.3488,-0.3493,-0.3492,-0.3519,-0.3521,-0.3522,-0.3537,-0.3536,-0.3536,0,0,0,0,0,0,-0.327,-0.3277,-0.3342,-0.3317,-0.3327,-0.3369,-0.3382,-0.339,-0.3401,-0.3444,-0.3452,-0.3425,-0.3484,-0.349,-0.3503,-0.3495,-0.3522,-0.3523,-0.3538,-0.3537,-0.3536,-0.349,0,0,0,0,0,0,-0.3267,-0.3276,-0.3275,-0.3317,-0.3328,-0.3351,-0.3382,-0.3391,-0.3405,-0.3409,-0.3449,-0.3456,-0.3485,-0.35,-0.3505,-0.3498,-0.3525,-0.3539,-0.3538,-0.3536,-0.3492,-0.3487,-0.3483,0,0,0,0,0,-0.3264,-0.3259,-0.3275,-0.3282,-0.3328,-0.335,-0.3357,-0.339,-0.3404,-0.3403,-0.343,-0.3455,-0.3495,-0.3501,-0.3507,-0.3501,-0.354,-0.3538,-0.3536,-0.3494,-0.3488,-0.3483,0,0,0,0,0,0,-0.3216,-0.3266,-0.3283,-0.3292,-0.3316,-0.3359,-0.336,-0.3382,-0.3403,-0.3407,-0.3447,-0.3455,-0.3464,-0.3484,-0.349,-0.35,-0.3521,-0.352,-0.3486,-0.3481,-0.3476,-0.3471,-0.3527,0,0,0,0,0,-0.3206,-0.322,-0.3263,-0.3267,-0.3278,-0.3316,-0.3328,-0.3351,-0.3378,-0.3389,-0.3417,-0.3442,-0.3461,-0.3472,-0.3491,-0.3495,-0.3505,-0.3494,-0.3489,-0.3485,-0.3484,-0.3487,-0.3483,-0.353,-0.353,-0.353,0,0,-0.3186,-0.3215,-0.3222,-0.3258,-0.3279,-0.3293,-0.3325,-0.3338,-0.3349,-0.3391,-0.3405,-0.3426,-0.3457,-0.3466,-0.3471,-0.3482,-0.3473,-0.3483,-0.3479,-0.3481,-0.3485,-0.348,-0.3476,-0.3529,-0.3529,-0.3529,0,0,-0.3157,-0.318,-0.3185,-0.3207,-0.3239,-0.3265,-0.3266,-0.3305,-0.3321,-0.3336,-0.3367,-0.338,-0.3411,-0.3432,-0.3446,-0.3424,-0.3447,-0.3429,-0.3405,-0.3407,-0.3404,-0.34,-0.3392,-0.3389,-0.3428,-0.3428,-0.3428,0,-0.3128,-0.315,-0.3185,-0.3197,-0.3211,-0.325,-0.3255,-0.3274,-0.3311,-0.332,-0.3333,-0.3372,-0.3395,-0.3409,-0.3403,-0.3414,-0.3416,-0.3425,-0.3401,-0.3398,-0.3396,-0.3389,-0.3385,-0.3425,-0.3426,-0.3426,-0.3426,0,-0.3112,-0.3127,-0.3127,-0.3162,-0.3177,-0.3185,-0.3222,-0.3232,-0.3254,-0.3278,-0.3292,-0.3322,-0.3347,-0.3352,-0.3374,-0.3369,-0.3375,-0.3394,-0.3416,-0.3389,-0.3382,-0.338,-0.3422,-0.3423,-0.3424,-0.3424,0,0,-0.3055,-0.3108,-0.3108,-0.3124,-0.3162,-0.3175,-0.3184,-0.3209,-0.3218,-0.3242,-0.3251,-0.3276,-0.3293,-0.3309,-0.3334,-0.3336,-0.3316,-0.3355,-0.3356,-0.3346,-0.3312,-0.3297,-0.3293,-0.3332,-0.3331,-0.3331,-0.3309,0,-0.3031,-0.3051,-0.3083,-0.3092,-0.3106,-0.3143,-0.3151,-0.3175,-0.3198,-0.3213,-0.3238,-0.3255,-0.3277,-0.3287,-0.3291,-0.3317,-0.3309,-0.332,-0.334,-0.334,-0.3331,-0.329,-0.3275,-0.3253,-0.3307,-0.3306,-0.3306,0,-0.3007,-0.3028,-0.3039,-0.3076,-0.3083,-0.309,-0.3115,-0.3129,-0.3158,-0.3174,-0.3192,-0.3218,-0.323,-0.325,-0.3267,-0.3273,-0.3283,-0.3297,-0.3297,-0.33,-0.3321,-0.3292,-0.3247,-0.3243,-0.3303,-0.3303,-0.3303,0,-0.2963,-0.2995,-0.3005,-0.3018,-0.3062,-0.3065,-0.3084,-0.3113,-0.3126,-0.3148,-0.3157,-0.318,-0.3192,-0.3209,-0.3241,-0.3253,-0.3254,-0.3277,-0.3268,-0.3267,-0.3266,-0.3266,-0.3222,-0.3273,-0.3273,-0.3273,-0.3273,0,-0.2933,-0.2938,-0.2986,-0.2992,-0.2999,-0.3035,-0.3041,-0.3062,-0.3088,-0.3099,-0.3132,-0.3141,-0.3183,-0.3197,-0.3222,-0.3232,-0.3237,-0.3251,-0.3257,-0.3248,-0.3246,-0.3255,-0.3257,-0.3272,-0.3273,-0.3273,-0.3273,0,-0.2885,-0.2918,-0.2931,-0.2971,-0.2982,-0.2984,-0.3019,-0.3026,-0.305,-0.3064,-0.3069,-0.3107,-0.3126,-0.3159,-0.3187,-0.3204,-0.3209,-0.322,-0.3199,-0.3203,-0.3192,-0.3192,-0.3152,-0.3148,-0.3202,-0.3201,-0.3201,0,-0.2864,-0.2869,-0.2909,-0.2919,-0.2936,-0.2951,-0.2964,-0.3,-0.3013,-0.3045,-0.3048,-0.3069,-0.3088,-0.3116,-0.3146,-0.3168,-0.318,-0.3164,-0.3183,-0.3173,-0.3179,-0.3178,-0.3179,-0.3159,-0.3159,-0.3158,-0.3158,0,-0.2823,-0.2839,-0.2856,-0.2879,-0.2894,-0.2914,-0.2936,-0.2942,-0.2983,-0.2995,-0.3014,-0.3029,-0.3057,-0.3078,-0.3103,-0.3122,-0.3146,-0.3151,-0.315,-0.314,-0.3128,-0.3134,-0.3187,-0.3152,-0.3153,-0.3153,-0.3153,-0.3154,-0.2788,-0.2793,-0.2822,-0.2841,-0.2861,-0.288,-0.2889,-0.2914,-0.2931,-0.2957,-0.2977,-0.2995,-0.3023,-0.306,-0.3077,-0.3091,-0.3103,-0.3101,-0.3101,-0.31,-0.3096,-0.3126,-0.3096,-0.3096,-0.3097,-0.3097,-0.3097,0,-0.2748,-0.2768,-0.2785,-0.2814,-0.2828,-0.285,-0.2875,-0.2886,-0.2901,-0.2925,-0.2942,-0.2964,-0.2984,-0.3016,-0.3038,-0.3043,-0.3055,-0.3048,-0.3048,-0.3051,-0.3085,-0.3083,-0.3038,-0.3038,-0.3038,-0.3038,-0.3038,-0.3038,-0.2729,-0.2739,-0.2758,-0.2779,-0.2799,-0.2817,-0.2829,-0.2847,-0.2866,-0.2889,-0.2906,-0.2926,-0.2953,-0.2978,-0.2997,-0.3005,-0.3012,-0.3001,-0.3013,-0.3044,-0.3049,-0.3054,-0.3053,-0.3002,-0.3002,-0.2979,-0.2979,-0.2979]}]]